User: anonymous   Login
Location: Unspecified
(0.0000°N, 0.0000°E)
Time: 17:22:26
(UTC+00:00)
Language:

ATHENOXAT 1 - Orbit

View from above orbital plane
View from above orbital plane
View from above satellite
View from above satellite

Ground track
Ground track

The orbit data is extracted from the following two-line orbital elements,

1 41168U 15077C   21337.02969322  .00005082  00000-0  21552-3 0  9992
2 41168  14.9869 100.7635 0010725   8.9946 144.9675 15.16786105330408
Epoch (UTC): 03 December 2021 00:42:45
Eccentricity: 0.0010725
inclination: 14.9869°
perigee height: 508 km
apogee height: 523 km
right ascension of ascending node: 100.7635°
argument of perigee: 8.9946°
revolutions per day: 15.16786105
mean anomaly at epoch: 144.9675°
orbit number at epoch: 33040

The dashed part of the orbit path shows where the satellite is in the earth's shadow,  

DLR